Location: Overspoor
(51.4747°N, 5.6641°E)
Time: 01:12:49
(UTC+02:00)

KKS-1 - Pass Details

Date: 05 July 2022
Orbit: 635 x 648 km, 98.2° (Epoch: 07 August)

Event Time Altitude Azimuth Distance (km) Brightness Sun altitude
Rises 23:42:09 0° 16° (NNE) 2,977 ? -11.3°
Reaches altitude 10° 23:44:24 10° 18° (NNE) 2,061 ? -11.4°
Maximum altitude 23:48:53 72° 103° (ESE) 686 ? -11.8°
Enters shadow 23:52:55 12° 187° (S) 1,876 ? -12.0°
